Time,TemperatureF,DewpointF,PressureIn,WindDirection,WindDirectionDegrees,WindSpeedMPH,WindSpeedGustMPH,Humidity,HourlyPrecipIn,Conditions,Clouds,dailyrainin,SoftwareType,DateUTC
2013-03-06 00:02:00,31.0,30.0,29.74,NW,307,0.0,3.0,95,0.00,,,0.28,,2013-03-06 05:02:00,
2013-03-06 00:11:00,30.0,29.0,29.75,West,267,0.0,3.0,95,0.00,,,0.28,,2013-03-06 05:11:00,
2013-03-06 00:22:00,30.0,29.0,29.75,West,267,0.0,3.0,95,0.00,,,0.28,,2013-03-06 05:22:00,
2013-03-06 00:32:00,30.0,29.0,29.75,WNW,291,0.0,6.0,95,0.00,,,0.28,,2013-03-06 05:32:00,
2013-03-06 00:42:00,30.0,29.0,29.75,WNW,291,0.0,6.0,95,0.00,,,0.28,,2013-03-06 05:42:00,
2013-03-06 00:52:00,30.0,29.0,29.75,SW,224,0.0,0.0,95,0.00,,,0.28,,2013-03-06 05:52:00,
2013-03-06 01:02:00,30.0,29.0,29.75,SW,224,0.0,0.0,95,0.00,,,0.28,,2013-03-06 06:02:00,
2013-03-06 01:11:00,30.0,29.0,29.75,SW,224,0.0,0.0,95,0.00,,,0.28,,2013-03-06 06:11:00,
2013-03-06 01:22:00,30.0,29.0,29.75,West,280,0.0,0.0,95,0.00,,,0.28,,2013-03-06 06:22:00,
2013-03-06 01:32:00,30.0,29.0,29.75,West,265,0.0,0.0,95,0.00,,,0.28,,2013-03-06 06:32:00,
2013-03-06 01:42:00,30.0,29.0,29.75,West,265,0.0,0.0,95,0.00,,,0.28,,2013-03-06 06:42:00,
2013-03-06 01:52:00,30.0,29.0,29.76,WNW,284,1.0,0.0,95,0.00,,,0.28,,2013-03-06 06:52:00,
2013-03-06 02:01:00,30.0,29.0,29.77,WNW,286,0.0,3.0,95,0.00,,,0.28,,2013-03-06 07:01:00,
2013-03-06 02:11:00,30.0,29.0,29.77,WNW,286,0.0,3.0,95,0.00,,,0.28,,2013-03-06 07:11:00,
2013-03-06 02:22:00,30.0,29.0,29.78,North,7,0.0,0.0,95,0.00,,,0.28,,2013-03-06 07:22:00,
2013-03-06 02:32:00,29.0,28.0,29.78,North,358,1.0,6.0,95,0.00,,,0.28,,2013-03-06 07:32:00,
2013-03-06 02:42:00,29.0,28.0,29.78,North,358,1.0,6.0,95,0.00,,,0.28,,2013-03-06 07:42:00,
2013-03-06 02:52:00,29.0,28.0,29.78,North,356,1.0,0.0,95,0.00,,,0.28,,2013-03-06 07:52:00,
2013-03-06 03:01:00,28.0,27.0,29.78,NW,318,0.0,5.0,95,0.00,,,0.28,,2013-03-06 08:01:00,
2013-03-06 03:11:00,28.0,27.0,29.78,NW,318,0.0,5.0,95,0.00,,,0.28,,2013-03-06 08:11:00,
2013-03-06 03:21:00,29.0,28.0,29.79,NNW,348,2.0,3.0,95,0.00,,,0.28,,2013-03-06 08:21:00,
2013-03-06 03:32:00,29.0,28.0,29.80,North,351,2.0,5.0,95,0.00,,,0.28,,2013-03-06 08:32:00,
2013-03-06 03:42:00,29.0,28.0,29.80,North,351,2.0,5.0,95,0.00,,,0.28,,2013-03-06 08:42:00,
2013-03-06 03:52:00,29.0,28.0,29.80,NNW,331,2.0,5.0,95,0.00,,,0.28,,2013-03-06 08:52:00,
2013-03-06 04:01:00,28.0,27.0,29.80,North,350,3.0,6.0,95,0.00,,,0.28,,2013-03-06 09:01:00,
2013-03-06 04:12:00,28.0,27.0,29.80,North,350,3.0,6.0,95,0.00,,,0.28,,2013-03-06 09:12:00,
2013-03-06 04:21:00,29.0,28.0,29.81,NNW,332,3.0,6.0,95,0.00,,,0.28,,2013-03-06 09:21:00,
2013-03-06 04:32:00,29.0,28.0,29.82,North,359,2.0,5.0,95,0.00,,,0.28,,2013-03-06 09:32:00,
2013-03-06 04:42:00,29.0,28.0,29.82,North,359,2.0,5.0,95,0.00,,,0.28,,2013-03-06 09:42:00,
2013-03-06 04:52:00,29.0,28.0,29.84,North,0,0.0,0.0,95,0.00,,,0.28,,2013-03-06 09:52:00,
2013-03-06 05:01:00,29.0,28.0,29.84,North,350,5.0,9.0,95,0.00,,,0.28,,2013-03-06 10:01:00,
2013-03-06 05:11:00,29.0,28.0,29.84,North,350,5.0,9.0,95,0.00,,,0.28,,2013-03-06 10:11:00,
2013-03-06 05:22:00,29.0,28.0,29.86,North,357,6.0,7.0,95,0.00,,,0.28,,2013-03-06 10:22:00,
2013-03-06 05:32:00,29.0,28.0,29.87,North,0,3.0,6.0,95,0.00,,,0.28,,2013-03-06 10:32:00,
2013-03-06 05:42:00,29.0,28.0,29.87,North,0,3.0,6.0,95,0.00,,,0.28,,2013-03-06 10:42:00,
2013-03-06 05:52:00,29.0,28.0,29.88,North,0,6.0,7.0,95,0.00,,,0.28,,2013-03-06 10:52:00,
2013-03-06 06:02:00,29.0,28.0,29.89,North,2,5.0,5.0,95,0.00,,,0.28,,2013-03-06 11:02:00,
2013-03-06 06:11:00,29.0,28.0,29.89,North,2,5.0,5.0,95,0.00,,,0.28,,2013-03-06 11:11:00,
2013-03-06 06:22:00,29.0,28.0,29.91,North,359,6.0,8.0,95,0.00,,,0.28,,2013-03-06 11:22:00,
2013-03-06 06:32:00,29.0,28.0,29.91,North,359,7.0,7.0,95,0.00,,,0.28,,2013-03-06 11:32:00,
2013-03-06 06:42:00,29.0,28.0,29.91,North,359,7.0,7.0,95,0.00,,,0.28,,2013-03-06 11:42:00,
2013-03-06 06:52:00,29.0,28.0,29.93,North,0,7.0,9.0,95,0.00,,,0.28,,2013-03-06 11:52:00,
2013-03-06 07:02:00,29.0,28.0,29.94,North,355,7.0,10.0,95,0.00,,,0.28,,2013-03-06 12:02:00,
2013-03-06 07:11:00,29.0,28.0,29.94,North,355,7.0,10.0,95,0.00,,,0.28,,2013-03-06 12:11:00,
2013-03-06 07:22:00,28.0,27.0,29.96,North,358,6.0,6.0,95,0.00,,,0.28,,2013-03-06 12:22:00,
2013-03-06 07:33:00,29.0,28.0,29.97,North,355,7.0,10.0,95,0.00,,,0.28,,2013-03-06 12:33:00,
2013-03-06 07:42:00,29.0,28.0,29.97,North,355,7.0,10.0,95,0.00,,,0.28,,2013-03-06 12:42:00,
2013-03-06 07:53:00,28.0,27.0,29.98,North,354,6.0,7.0,95,0.00,,,0.28,,2013-03-06 12:53:00,
2013-03-06 08:02:00,28.0,27.0,30.00,North,352,6.0,9.0,95,0.00,,,0.28,,2013-03-06 13:02:00,
2013-03-06 08:12:00,28.0,27.0,30.00,North,352,6.0,9.0,95,0.00,,,0.28,,2013-03-06 13:12:00,
2013-03-06 08:22:00,28.0,27.0,30.02,North,1,6.0,9.0,95,0.00,,,0.28,,2013-03-06 13:22:00,
2013-03-06 08:32:00,28.0,27.0,30.03,North,355,7.0,9.0,95,0.00,,,0.28,,2013-03-06 13:32:00,
2013-03-06 08:42:00,28.0,27.0,30.03,North,355,7.0,9.0,95,0.00,,,0.28,,2013-03-06 13:42:00,
2013-03-06 08:52:00,28.0,27.0,30.05,North,0,7.0,7.0,95,0.00,,,0.28,,2013-03-06 13:52:00,
2013-03-06 09:01:00,28.0,27.0,30.06,North,1,8.0,8.0,95,0.00,,,0.28,,2013-03-06 14:01:00,
2013-03-06 09:11:00,28.0,27.0,30.06,North,1,8.0,8.0,95,0.00,,,0.28,,2013-03-06 14:11:00,
2013-03-06 09:22:00,28.0,27.0,30.08,North,2,3.0,5.0,95,0.00,,,0.28,,2013-03-06 14:22:00,
2013-03-06 09:32:00,28.0,27.0,30.09,North,349,6.0,7.0,95,0.00,,,0.28,,2013-03-06 14:32:00,
2013-03-06 09:42:00,28.0,27.0,30.11,North,2,8.0,9.0,95,0.00,,,0.28,,2013-03-06 14:42:00,
2013-03-06 09:53:00,28.0,27.0,30.11,North,2,8.0,9.0,95,0.00,,,0.28,,2013-03-06 14:53:00,
2013-03-06 10:02:00,28.0,27.0,30.11,NNW,342,7.0,9.0,95,0.00,,,0.28,,2013-03-06 15:02:00,
2013-03-06 10:11:00,28.0,27.0,30.11,NNW,342,7.0,9.0,95,0.00,,,0.28,,2013-03-06 15:11:00,
2013-03-06 10:22:00,29.0,28.0,30.13,NNW,343,7.0,9.0,95,0.00,,,0.28,,2013-03-06 15:22:00,
2013-03-06 10:32:00,29.0,28.0,30.13,North,357,8.0,9.0,95,0.00,,,0.28,,2013-03-06 15:32:00,
2013-03-06 10:42:00,29.0,28.0,30.13,North,357,8.0,9.0,95,0.00,,,0.28,,2013-03-06 15:42:00,
2013-03-06 10:52:00,29.0,28.0,30.14,North,350,6.0,7.0,95,0.00,,,0.28,,2013-03-06 15:52:00,
2013-03-06 11:02:00,29.0,28.0,30.14,NNW,342,7.0,9.0,95,0.00,,,0.28,,2013-03-06 16:02:00,
2013-03-06 11:12:00,29.0,28.0,30.14,NNW,342,7.0,9.0,95,0.00,,,0.28,,2013-03-06 16:12:00,
2013-03-06 11:21:00,29.0,28.0,30.16,North,352,8.0,9.0,95,0.00,,,0.28,,2013-03-06 16:21:00,
2013-03-06 11:32:00,30.0,29.0,30.16,North,356,7.0,10.0,95,0.00,,,0.28,,2013-03-06 16:32:00,
2013-03-06 11:42:00,30.0,29.0,30.16,North,356,7.0,10.0,95,0.00,,,0.28,,2013-03-06 16:42:00,
2013-03-06 11:52:00,30.0,29.0,30.16,North,356,8.0,14.0,95,0.00,,,0.28,,2013-03-06 16:52:00,
2013-03-06 12:01:00,30.0,29.0,30.17,North,354,8.0,10.0,95,0.00,,,0.28,,2013-03-06 17:01:00,
2013-03-06 12:11:00,30.0,29.0,30.17,North,354,8.0,10.0,95,0.00,,,0.28,,2013-03-06 17:11:00,
2013-03-06 12:22:00,31.0,30.0,30.19,North,0,9.0,10.0,95,0.00,,,0.28,,2013-03-06 17:22:00,
2013-03-06 12:32:00,31.0,30.0,30.19,North,1,7.0,14.0,95,0.00,,,0.28,,2013-03-06 17:32:00,
2013-03-06 12:42:00,31.0,30.0,30.19,North,1,7.0,14.0,95,0.00,,,0.28,,2013-03-06 17:42:00,
2013-03-06 12:53:00,32.0,31.0,30.19,NNW,344,7.0,12.0,95,0.00,,,0.28,,2013-03-06 17:53:00,
2013-03-06 13:02:00,33.0,32.0,30.20,NNW,344,7.0,7.0,95,0.00,,,0.28,,2013-03-06 18:02:00,
2013-03-06 13:28:00,33.0,31.0,30.21,North,354,8.0,10.0,93,0.01,,,0.29,,2013-03-06 18:28:00,
2013-03-06 13:42:00,32.0,30.0,30.21,North,5,2.0,7.0,93,0.02,,,0.30,,2013-03-06 18:42:00,
2013-03-06 13:53:00,33.0,31.0,30.20,North,358,6.0,13.0,93,0.02,,,0.30,,2013-03-06 18:53:00,
2013-03-06 14:02:00,33.0,31.0,30.20,North,1,2.0,9.0,93,0.03,,,0.31,,2013-03-06 19:02:00,
2013-03-06 14:11:00,33.0,31.0,30.20,North,1,2.0,9.0,93,0.03,,,0.31,,2013-03-06 19:11:00,
2013-03-06 14:22:00,33.0,31.0,30.21,North,4,7.0,12.0,92,0.03,,,0.32,,2013-03-06 19:22:00,
2013-03-06 14:32:00,34.0,32.0,30.21,NNW,335,0.0,0.0,92,0.02,,,0.32,,2013-03-06 19:32:00,
2013-03-06 14:43:00,34.0,32.0,30.21,NNW,335,0.0,0.0,92,0.02,,,0.32,,2013-03-06 19:43:00,
2013-03-06 14:53:00,33.0,31.0,30.22,NNW,342,6.0,6.0,92,0.03,,,0.33,,2013-03-06 19:53:00,
2013-03-06 15:02:00,33.0,31.0,30.21,NNW,344,7.0,8.0,92,0.03,,,0.34,,2013-03-06 20:02:00,
2013-03-06 15:12:00,33.0,31.0,30.21,NNW,344,7.0,8.0,92,0.03,,,0.34,,2013-03-06 20:12:00,
2013-03-06 15:22:00,33.0,31.0,30.22,North,357,6.0,7.0,92,0.02,,,0.34,,2013-03-06 20:22:00,
2013-03-06 15:32:00,33.0,31.0,30.23,North,3,6.0,12.0,92,0.03,,,0.35,,2013-03-06 20:32:00,
2013-03-06 15:42:00,33.0,31.0,30.23,North,3,6.0,12.0,92,0.03,,,0.35,,2013-03-06 20:42:00,
2013-03-06 15:53:00,33.0,31.0,30.23,North,350,2.0,3.0,92,0.03,,,0.36,,2013-03-06 20:53:00,
2013-03-06 16:02:00,34.0,32.0,30.24,North,351,5.0,5.0,92,0.02,,,0.36,,2013-03-06 21:02:00,
2013-03-06 16:12:00,34.0,32.0,30.24,North,351,5.0,5.0,92,0.02,,,0.36,,2013-03-06 21:12:00,
2013-03-06 16:22:00,33.0,31.0,30.24,NNW,345,6.0,8.0,92,0.02,,,0.34,,2013-03-06 21:22:00,
2013-03-06 16:32:00,33.0,31.0,30.24,North,3,3.0,9.0,92,0.01,,,0.34,,2013-03-06 21:32:00,
2013-03-06 16:42:00,33.0,31.0,30.24,North,3,3.0,9.0,92,0.01,,,0.34,,2013-03-06 21:42:00,
2013-03-06 16:52:00,33.0,31.0,30.25,North,355,6.0,7.0,92,0.01,,,0.31,,2013-03-06 21:52:00,
2013-03-06 17:02:00,33.0,31.0,30.25,NNW,347,1.0,6.0,92,0.01,,,0.30,,2013-03-06 22:02:00,
2013-03-06 17:11:00,33.0,31.0,30.25,NNW,347,1.0,6.0,92,0.01,,,0.30,,2013-03-06 22:11:00,
2013-03-06 17:22:00,33.0,31.0,30.26,North,0,2.0,9.0,92,0.01,,,0.27,,2013-03-06 22:22:00,
2013-03-06 17:32:00,33.0,31.0,30.26,NW,315,3.0,6.0,92,0.02,,,0.27,,2013-03-06 22:32:00,
2013-03-06 17:42:00,33.0,31.0,30.26,NW,315,3.0,6.0,92,0.02,,,0.27,,2013-03-06 22:42:00,
2013-03-06 17:52:00,33.0,31.0,30.27,North,11,0.0,0.0,92,0.01,,,0.24,,2013-03-06 22:52:00,
2013-03-06 18:01:00,32.0,30.0,30.28,North,351,1.0,6.0,92,0.01,,,0.23,,2013-03-06 23:01:00,
2013-03-06 18:11:00,32.0,30.0,30.28,North,351,1.0,6.0,92,0.01,,,0.23,,2013-03-06 23:11:00,
2013-03-06 18:21:00,32.0,30.0,30.28,North,351,1.0,6.0,93,0.01,,,0.20,,2013-03-06 23:21:00,
2013-03-06 18:32:00,32.0,30.0,30.29,North,349,5.0,5.0,93,0.00,,,0.19,,2013-03-06 23:32:00,
2013-03-06 18:42:00,32.0,30.0,30.29,NNW,332,2.0,0.0,93,0.00,,,0.18,,2013-03-06 23:42:00,
2013-03-06 18:52:00,32.0,30.0,30.29,NNW,332,2.0,0.0,93,0.00,,,0.18,,2013-03-06 23:52:00,
2013-03-06 19:02:00,32.0,30.0,30.29,North,349,5.0,6.0,93,0.00,,,0.17,,2013-03-07 00:02:00,
2013-03-06 19:11:00,32.0,30.0,30.29,North,349,5.0,6.0,93,0.00,,,0.17,,2013-03-07 00:11:00,
2013-03-06 19:21:00,31.0,29.0,30.30,NNW,340,3.0,5.0,93,0.00,,,0.12,,2013-03-07 00:21:00,
2013-03-06 19:32:00,32.0,30.0,30.30,North,349,6.0,7.0,93,0.00,,,0.11,,2013-03-07 00:32:00,
2013-03-06 19:42:00,32.0,30.0,30.30,North,349,6.0,7.0,93,0.00,,,0.11,,2013-03-07 00:42:00,
2013-03-06 19:52:00,32.0,30.0,30.31,North,352,1.0,0.0,94,0.00,,,0.11,,2013-03-07 00:52:00,
2013-03-06 20:01:00,32.0,31.0,30.31,NW,311,0.0,0.0,95,0.00,,,0.11,,2013-03-07 01:01:00,
2013-03-06 20:11:00,32.0,31.0,30.31,NW,311,0.0,0.0,95,0.00,,,0.11,,2013-03-07 01:11:00,
2013-03-06 20:21:00,32.0,31.0,30.32,NW,311,0.0,0.0,95,0.00,,,0.11,,2013-03-07 01:21:00,
2013-03-06 20:32:00,32.0,31.0,30.32,NW,311,0.0,2.0,95,0.00,,,0.11,,2013-03-07 01:32:00,
2013-03-06 20:42:00,32.0,31.0,30.32,NW,311,0.0,2.0,95,0.00,,,0.11,,2013-03-07 01:42:00,
2013-03-06 20:52:00,31.0,30.0,30.32,NNE,16,0.0,0.0,95,0.00,,,0.11,,2013-03-07 01:52:00,
2013-03-06 21:01:00,31.0,30.0,30.32,North,353,1.0,3.0,95,0.00,,,0.11,,2013-03-07 02:01:00,
2013-03-06 21:11:00,31.0,30.0,30.32,North,353,1.0,3.0,95,0.00,,,0.11,,2013-03-07 02:11:00,
2013-03-06 21:21:00,32.0,31.0,30.32,North,6,0.0,0.0,95,0.00,,,0.10,,2013-03-07 02:21:00,
2013-03-06 21:32:00,31.0,30.0,30.33,North,6,0.0,0.0,95,0.00,,,0.10,,2013-03-07 02:32:00,
2013-03-06 21:41:00,31.0,30.0,30.33,North,6,0.0,0.0,95,0.00,,,0.10,,2013-03-07 02:41:00,
2013-03-06 21:52:00,31.0,30.0,30.33,North,6,0.0,0.0,95,0.00,,,0.10,,2013-03-07 02:52:00,
2013-03-06 22:02:00,31.0,30.0,30.33,NNW,345,5.0,5.0,95,0.00,,,0.10,,2013-03-07 03:02:00,
2013-03-06 22:11:00,32.0,31.0,30.33,North,354,0.0,0.0,95,0.00,,,0.10,,2013-03-07 03:11:00,
2013-03-06 22:21:00,32.0,31.0,30.33,North,354,0.0,0.0,95,0.00,,,0.10,,2013-03-07 03:21:00,
2013-03-06 22:32:00,31.0,30.0,30.33,NNW,335,0.0,0.0,95,0.00,,,0.10,,2013-03-07 03:32:00,
2013-03-06 22:42:00,31.0,30.0,30.33,NNW,335,0.0,0.0,95,0.00,,,0.10,,2013-03-07 03:42:00,
2013-03-06 22:52:00,31.0,30.0,30.33,NNW,335,0.0,0.0,95,0.00,,,0.10,,2013-03-07 03:52:00,
2013-03-06 23:01:00,32.0,31.0,30.34,NNW,335,0.0,0.0,95,0.00,,,0.10,,2013-03-07 04:01:00,
2013-03-06 23:11:00,32.0,31.0,30.34,NNW,335,0.0,0.0,95,0.00,,,0.10,,2013-03-07 04:11:00,
2013-03-06 23:22:00,32.0,31.0,30.33,NNW,335,0.0,0.0,95,0.00,,,0.10,,2013-03-07 04:22:00,
2013-03-06 23:32:00,32.0,31.0,30.33,NNW,335,0.0,0.0,95,0.00,,,0.10,,2013-03-07 04:32:00,
2013-03-06 23:42:00,32.0,31.0,30.33,NNW,335,0.0,0.0,95,0.00,,,0.10,,2013-03-07 04:42:00,
2013-03-06 23:52:00,31.0,30.0,30.33,West,280,0.0,0.0,95,0.00,,,0.10,,2013-03-07 04:52:00,